This demonstration page uses our WeatherBlox Daily Observations layout. Learn more.

Left ArrowRight Arrow

Hourly Observations for August 20, 2019

Temp ( °F °C ) Dew Point ( °F °C ) Humidity (%) Winds ( mph kmh ) Pressure ( in mb ) Visibility ( mi km ) Precip ( " mm )
12:15 am 00:15 Clear 72 22 72 22 100 100 Calm 30.05 1018 10 16.0934 0 0
12:35 am 00:35 Clear 72 22 72 22 100 100 NW 5 7 30.04 1017 10 16.0934 0 0
12:55 am 00:55 Clear 72 22 72 22 100 100 NNW 5 7 30.05 1018 10 16.0934 0 0
1:15 am 01:15 Clear 72 22 72 22 100 100 Calm 30.05 1018 10 16.0934 0 0
1:35 am 01:35 Clear 73 23 72 22 94 94 ESE 6 9 30.05 1018 10 16.0934 0 0
1:55 am 01:55 Clear 72 22 70 21 94 94 SW 3 6 30.06 1018 10 16.0934 0 0
2:15 am 02:15 Clear 70 21 70 21 100 100 Calm 30.06 1018 10 16.0934 0 0
2:35 am 02:35 Clear 70 21 70 21 100 100 Calm 30.06 1018 10 16.0934 0 0
2:55 am 02:55 Clear 70 21 70 21 100 100 Calm 30.06 1018 10 16.0934 0 0
3:15 am 03:15 Clear 70 21 70 21 100 100 Calm 30.06 1018 10 16.0934 0 0
3:35 am 03:35 Clear 70 21 70 21 100 100 Calm 30.06 1018 10 16.0934 0 0
3:55 am 03:55 Clear 70 21 70 21 100 100 Calm 30.07 1018 10 16.0934 0 0
4:15 am 04:15 Clear 70 21 70 21 100 100 Calm 30.07 1018 10 16.0934 0 0
4:35 am 04:35 Clear 70 21 70 21 100 100 Calm 30.07 1018 10 16.0934 0 0
4:55 am 04:55 Clear 70 21 70 21 100 100 Calm 30.07 1018 10 16.0934 0 0
5:15 am 05:15 Clear 70 21 70 21 100 100 Calm 30.07 1018 10 16.0934 0 0
5:35 am 05:35 Clear 70 21 70 21 100 100 Calm 30.07 1018 10 16.0934 0 0
5:55 am 05:55 Clear 68 20 68 20 100 100 Calm 30.08 1019 10 16.0934 0 0
6:15 am 06:15 Clear 68 20 68 20 100 100 Calm 30.08 1019 10 16.0934 0 0
6:35 am 06:35 Sunny 68 20 68 20 100 100 Calm 30.09 1019 10 16.0934 0 0
6:55 am 06:55 Sunny 68 20 68 20 100 100 undefined N/A 30.09 1019 10 16.0934 0 0
7:15 am 07:15 Sunny 68 20 68 20 100 100 Calm 30.09 1019 10 16.0934 0 0
7:35 am 07:35 Sunny 70 21 70 21 100 100 Calm 30.1 1019 10 16.0934 0 0
7:55 am 07:55 Sunny 72 22 70 21 94 94 ESE 3 6 30.11 1020 10 16.0934 0 0
8:15 am 08:15 Sunny 72 22 72 22 100 100 Calm 30.11 1020 10 16.0934 0 0
8:35 am 08:35 Sunny 75 24 70 21 83 83 NNE 3 6 30.12 1020 10 16.0934 0 0
8:55 am 08:55 Sunny 77 25 70 21 79 79 NE 5 7 30.1 1019 10 16.0934 0 0
9:15 am 09:15 Sunny 79 26 70 21 74 74 Calm 30.1 1019 10 16.0934 0 0
9:35 am 09:35 Sunny 81 27 70 21 70 70 NNE 3 6 30.11 1020 10 16.0934 0 0
9:55 am 09:55 Sunny 82 28 70 21 66 66 Calm 30.1 1019 10 16.0934 0 0
10:15 am 10:15 Sunny 82 28 70 21 66 66 Calm 30.11 1020 10 16.0934 0 0
10:35 am 10:35 Sunny 86 30 70 21 59 59 ENE 5 7 30.11 1020 10 16.0934 0 0
10:55 am 10:55 Sunny 86 30 70 21 59 59 Calm 30.1 1019 10 16.0934 0 0
11:15 am 11:15 Sunny 88 31 72 22 59 59 ESE 5 7 30.1 1019 10 16.0934 0 0
11:35 am 11:35 Sunny 88 31 72 22 59 59 Calm 30.1 1019 N/A 0 0
11:55 am 11:55 Sunny 90 32 70 21 52 52 SE 8 13 30.1 1019 10 16.0934 0 0
12:15 pm 12:15 Sunny 90 32 72 22 55 55 ENE 3 6 30.08 1018 10 16.0934 0 0
12:35 pm 12:35 Sunny 90 32 72 22 55 55 SSE 7 11 30.08 1018 10 16.0934 0 0
1:15 pm 13:15 Partly Cloudy 91 33 72 22 52 52 ESE 6 9 30.06 1018 10 16.0934 0 0
1:35 pm 13:35 Partly Cloudy 93 34 72 22 49 49 SSW 6 9 30.05 1018 10 16.0934 0 0
2:15 pm 14:15 Mostly Cloudy 91 33 72 22 52 52 W 3 6 30.05 1018 10 16.0934 0 0
2:35 pm 14:35 Cloudy 91 33 72 22 52 52 ESE 7 11 30.03 1017 10 16.0934 0 0
2:55 pm 14:55 Mostly Cloudy 91 33 72 22 52 52 E 7 11 30.02 1017 10 16.0934 0 0
3:15 pm 15:15 Mostly Cloudy 91 33 72 22 52 52 ENE 6 9 30.02 1017 10 16.0934 0 0
3:35 pm 15:35 Mostly Cloudy 91 33 72 22 52 52 Calm 30.01 1016 10 16.0934 0 0
3:55 pm 15:55 Partly Cloudy 93 34 72 22 49 49 Calm 30.02 1017 10 16.0934 0 0
4:15 pm 16:15 Sunny 91 33 72 22 52 52 Calm 30.02 1017 10 16.0934 0 0
4:35 pm 16:35 Sunny 91 33 72 22 52 52 NE 3 6 30.02 1017 10 16.0934 0 0
4:55 pm 16:55 Partly Cloudy with Nearby Thunderstorms 91 33 72 22 52 52 ENE 3 6 30.01 1016 10 16.0934 0 0
5:15 pm 17:15 Mostly Cloudy 90 32 72 22 55 55 SSE 17 28 30.03 1017 10 16.0934 0 0
5:35 pm 17:35 Cloudy 82 28 70 21 66 66 SE 12 19 30.03 1017 10 16.0934 0 0
5:55 pm 17:55 Mostly Cloudy 81 27 70 21 70 70 SE 8 13 30.02 1017 10 16.0934 0 0
6:15 pm 18:15 Mostly Cloudy with Nearby Thunderstorms 81 27 70 21 70 70 Calm 30.02 1017 10 16.0934 0 0
6:35 pm 18:35 Cloudy with Thunderstorms 73 23 68 20 83 83 WNW 25 41 30.07 1018 1.5 2.41401 0.13 3.302
6:55 pm 18:55 Cloudy with Thunderstorms 72 22 68 20 88 88 WSW 9 15 30.04 1017 1 1.60934 0.74 18.796
7:15 pm 19:15 Mostly Cloudy with Nearby Thunderstorms 72 22 70 21 94 94 SSE 5 7 30.05 1018 10 16.0934 0.02 0.508
7:35 pm 19:35 Partly Cloudy with Thunderstorms 72 22 70 21 94 94 Calm 30.06 1018 7 11.26538 0.04 1.016
7:55 pm 19:55 Mostly Cloudy 72 22 70 21 94 94 Calm 30.06 1018 7 11.26538 0.07 1.778
8:15 pm 20:15 Partly Cloudy 70 21 70 21 100 100 WSW 5 7 30.07 1018 10 16.0934 0 0
8:35 pm 20:35 Mostly Cloudy 70 21 70 21 100 100 SW 8 13 30.08 1019 10 16.0934 0 0
8:55 pm 20:55 Partly Cloudy 72 22 70 21 94 94 Calm 30.07 1018 10 16.0934 0 0
9:15 pm 21:15 Clear 70 21 70 21 100 100 Calm 30.06 1018 10 16.0934 0 0
9:35 pm 21:35 Clear 70 21 70 21 100 100 Calm 30.05 1018 10 16.0934 0 0
9:55 pm 21:55 Mostly Cloudy 70 21 70 21 100 100 Calm 30.04 1017 10 16.0934 0 0
10:15 pm 22:15 Partly Cloudy 70 21 70 21 100 100 Calm 30.04 1017 10 16.0934 0 0
10:35 pm 22:35 Clear 70 21 70 21 100 100 SSW 7 11 30.04 1017 10 16.0934 0 0
10:55 pm 22:55 Clear 68 20 68 20 100 100 W 8 13 30.03 1017 10 16.0934 0 0
11:15 pm 23:15 Clear 70 21 70 21 100 100 WSW 8 13 30.04 1017 10 16.0934 0 0
11:35 pm 23:35 Clear 70 21 70 21 100 100 WSW 6 9 30.04 1017 10 16.0934 0 0
11:55 pm 23:55 Clear 70 21 70 21 100 100 W 10 17 30.05 1018 10 16.0934 0 0

Powered by AerisWeather